Location: Kalberh�ni
(46.4610°N, 7.2453°E)
Time: 05:27:26
(UTC+00:00)

Cosmos 1802 Rocket - Pass Details

Date: 25 October 2021
Orbit: 955 x 1010 km, 82.9° (Epoch: 05 December)

Event Time Altitude Azimuth Distance (km) Brightness Sun altitude
Rises 20:43:11 0° 233° (SW) 3,625 7.2 -43.3°
Enters shadow 20:44:43 - 239° (WSW) 3,150 6.9 -43.5°
Exits shadow 20:50:29 20° 292° (WNW) 2,060 6.1 -44.3°
Maximum altitude 20:50:47 20° 296° (WNW) 2,057 6.1 -44.4°
Drops below altitude 10° 20:55:12 10° 342° (NNW) 2,704 6.7 -45.0°
Sets 20:58:29 0° 359° (N) 3,662 7.4 -45.4°
